Airfield :
LOGIN :

Register | Disclaimer

   EN    FR    IT 

 










Legend :    VFR   Marginal VFR   IFR   Intensive IFR   Very Intensive IFR
Visi :
Ceiling :
>= 8 km
>= 3000ft
5 to 8 km
1000 to 3000 ft
1500m to 5 km
500 to 1000 ft
800 to 1500m
200 to 500 ft
< 800m
< 200 ft
Symbols :   Thunderstorms  Fog  Heavy snow  Heavy precipitations  Wind > 20 kt
SIGMETs :     Misc.  Thunderstorms  Icing  Turbulence  Mountain Waves  Volcanic Ashes







- Airport Elevation : 479 ft
- IATA code : DOL
- Download approach charts


LFRG - Deauville

CURRENT METAR :
  • 241830Z AUTO 28007KT 250V310 9999 SCT008 13/10 Q1019 NOSIG

EXPIRED METARs :
  • 241800Z AUTO 28007KT 250V310 CAVOK 14/10 Q1018 NOSIG
  • 241730Z AUTO 28007KT CAVOK 14/10 Q1018 NOSIG
  • 241700Z AUTO 27008KT CAVOK 15/11 Q1018 NOSIG
  • 241630Z AUTO 28010KT 9999 FEW013 14/10 Q1018 NOSIG
  • 241600Z AUTO 29008KT 260V340 CAVOK 15/11 Q1019 NOSIG

TAF TAF LFRG
Valid from the 24 at 15:00 until the 25 at 00:00 UTC


241400Z 2415/2424 29010KT 9999 SCT020
BECMG 2419/2421 27005KT
PROB30
TEMPO 2422/2424 3000 BR BKN006
ATIS : +33 2 31 65 65 36
No reported NOTAMs for that airfield.



MET'MAP, your aeronautical weather chart ! - Copyright ORBIFLY December 2007 - Disclaimer

ORBIFLY MET'MAP TEAM :

Programming & Development : Alexandra Zaïnal
Concept & Development : Baudouin d'Aumeries
Co-Development & Prog : Marc-Olivier Méhu
Technical & hardware support : Manuel Goepfert

Contact : metmap@orbifly.com




SOURCES & CREDITS :

   NOAA